Погода в Житковичи

Погода в Житковичи : погода сейчас, прогноз погоды и архив. Всё, что Вы хотите узнать о погоде в Житковичи!

Хотите узнать прогноз погоды в Житковичи? Тогда Вам сюда: Погода в Житковичи

Поиск расширенной информации на нашем сайте:

Другие новости

Новости СМИ2

Главная страница сайта

Новости сайта

03.07.2017

Напоминаем, что на нашем специализированном сайте Метеоцентр.Азия вы можете получить высокодетализированные автоматические прогнозы погоды по пунктам России, СНГ и мира в авиационном формате (включающие направление и скорость ветра, видимость, явления погоды, количество и форму облачности, нижнюю и верхнюю границу облачности).

Рекомендуем: Ворота гаражные секционные отзыв о гаражные секционные ворота.

Погода в Житковичи - сегодня

Время (UTC), дата Ветер
(°,м/с) 
Видим.   Явления Облачность Т
(°С)
Тd
(°С)
f(%) Тe
(°С)
Pmin
(гПа)
dP
(гПа)
Po
(мм)
O2
(г/м3)
Тmin Tmax R s Состояние
почвы
12 20.09.18 210 (ЮЗ) 20000 м    ясно 
+27.4 +14 44 +34  1020.1  -0.7  753  273           
15 20.09.18 210 (ЮЗ) 20000 м    ясно 
+27 +13.5 43 +33  1019.3  -0.9  753  273           
18 20.09.18 тихо ()   10 км    ясно 
+16.2 +12.9 81 +21  1020.4  0.5  753  284    +27.9       
21 20.09.18 тихо ()   4000 м  дымка  3/0 верхняя 
[Ci fib]
+12.4 +11.2 92 +15  1020.5  -0.1  753  288           
00 21.09.18 тихо ()   4000 м  дымка  ясно 
+10.3 +9.7 96 +11  1020.7  0.1  753  291           
03 21.09.18 тихо ()   4000 м  дымка  ясно 
+8.6 +8 96 +9  1020.8  753  293           
06 21.09.18 тихо ()   10 км    ясно 
+13.4 +11.3 87 +16  1020.8  0.2  753  287  +7.6         
09 21.09.18 160 (Ю) 20000 м    ясно 
+24.6 +13.5 50 +31  1020.1  753  276           
12 21.09.18 170 (Ю) 20000 м    3/3 600 м 
[Cu med, cong]
+27 +13.7 44 +33  1018.5  -1.5  752  273           
15 21.09.18 130 (ЮВ) 20000 м    8/4 1000 м средняя, верхняя 
[Cu med, cong|Ac cuf|Ci fib]
+25.1 +14.4 51 +33  1017.1  -1.5  751  274           
18 21.09.18 130 (ЮВ) 10 км    ясно 
+21.1 +13.8 63 +28  1016.2  -1.1  750  278    +28       
21 21.09.18 180 (Ю) 10 км    ясно 
+19 +12.6 66 +26  1015.4  -0.9  750  280           
00 22.09.18 130 (ЮВ) 10 км    ясно 
+17.1 +11.8 71 +23  1014.7  -0.8  749  282           
03 22.09.18 тихо ()   10 км    ясно 
+13.8 +11 83 +16  1013  -1.7  748  285           
09 22.09.18 240 (ЮЗ) 3{10}  20000 м    8/0 средняя, верхняя 
[Ac trans|Ci fib]
+20.1 +12.1 60 +24  1012.6  1.2  748  278           
12 22.09.18 290 (З) 4{12}  10 км    10/5 600 м кучево-дожд., средняя 
[Cb cap|Ac und]
+15.1 +8.4 64 +15  1016  750  285           
15 22.09.18 280 (З) 1{10}  4000 м  слаб. ливневой дождь  10/8 600 м кучево-дожд., средняя 
[Cb cap|Ac und]
+10.9 +9.5 91 +13  1017.7  1.5  751  289         
18 22.09.18 230 (ЮЗ) 4000 м  слаб. ливневой дождь  10/9 600 м кучево-дожд., средняя 
[Cb cap|Ac und]
+9.9 +9 94 +10  1017.5  -0.1  751  290    +21.5     
21 22.09.18 240 (ЮЗ) 4000 м  дымка  9/0 верхняя 
[Ci fib]
+8.6 +8.2 97 +9  1017.1  -0.7  750  292           
00 23.09.18 230 (ЮЗ) 2000 м  дымка  10/0 средняя 
[Ac und]
+7.6 +7.1 97 +8  1017.2  750  293           
03 23.09.18 250 (З) 4000 м  дымка  10/0 средняя 
[Ac und]
+8.5 +7.8 95 +9  1017.1  750  292           
06 23.09.18 240 (ЮЗ) 4000 м  дымка  9/6 600 м кучево-дожд., средняя 
[Cb cap|Ac trans]
+8.6 +7.7 94 +10  1016.6  -0.5  750  292  +7.5         
09 23.09.18 210 (ЮЗ) 10 км    4/3 600 м средняя 
[Cu med, cong|Ac trans]
+12.8 +8.6 76 +13  1016.2  -0.1  750  287           
12 23.09.18 260 (З) 3{10}  20000 м    8/4 600 м средняя 
[Cu med, cong|Ac trans]
+17.2 +5.5 46 +18  1015.3  -0.7  749  283           
15 23.09.18 220 (ЮЗ) 2{10}  10 км    9/9 600 м 
[Sc]
+15.9 +5.9 51 +17  1014.4  -1  749  284           
Время (UTC), дата Ветер
(°,м/с) 
Видим.   Явления Облачность Т
(°С)
Тd
(°С)
f(%) Тe
(°С)
Pmin
(гПа)
dP
(гПа)
Po
(мм)
O2
(г/м3)
Тmin Tmax R s Состояние
почвы

Для получения пояснительной информации подведите курсор к названию столбца.

ПОГОДА в Житковичи - архив

Всё, что Вы хотите узнать о погоде в Житковичи - удобно и подробно!

Выберите нужную дату (начиная с 1 января 2015* года) и нажмите кнопку "Найти".
Будут отображены архивные сводки погоды по пункту Житковичи, начиная с указанной даты.


Отображать данные в формате CSV (для использования в таблицах Excel)


Внимание! Наш архив погоды предназначен исключительно для личного некоммерческого использования в познавательных целях. Если Вам необходимы официальные справки о состоянии погоды (для производственных, юридических, коммерческих и т.п. целей), обращайтесь в органы Росгидромета.

*Примечание: данная дата относится к архиву по метеостанциям СССР (Россия, СНГ, Балтия).
Архив по метеостанциям Зарубежной Европы и Азии (кроме Китая) хранится 10 дней, по другим регионам земного шара (Китай, Африка, Америка, Австралия, Океания) - 1 день.

Житковичи - район местоположения метеостанции


Название, широта, долгота, высота метеостанции:
Житковичи 52.2°ш. 27.9°д. 137 м над ур. моря [Беларусь]

Дополнительная информация

В oтличие oт бoльшинства пoгoдных сайтoв мы публикуем пoдрoбную метеoинфoрмацию в детальнoм прoфессиoнальнoм фoрмате.

Характеристики температуры и влажнoсти вoздуха измеряются на высoте 2 м в тени вдали oт зданий и деревьев.
Скoрoсть ветра измеряется на высoте 10 м (на урoвне рoста челoвека скoрoсть ветра ниже в 1.5-2 раза). Если метеoстанция нахoдится в гoрoде или в лесу, тo скoрoсть ветра занижена на 2-4 м/с пo сравнению с oткрытым местoм. Скoрoсть ветра над акватoриями крупных рек и oзёр, а также на вершинах хoлмoв на 2-5 м/с выше, чем в oбычных услoвиях.
Атмoсфернoе давление в разных тoчках местнoсти мoжет значительнo oтличаться oт давления на метеoстанции, в зависимoсти oт услoвий рельефа (при пoдъёме на 10 м давление пoнижается примернo на 1 мм рт.ст.).